N2NET Weather Reports


time (UTC)temp
F
wind
direction
speed
knots
gust
knots
rain 1hr
in
rain 24hr
in
rain mn
in
humidity
%
barometer
mb
20260506211553 59 0 0.0 0.0 0.00 0.46 0.46 100 1004.7
20260506210049 59 0 0.0 4.3 0.00 0.46 0.46 100 1004.8
20260506204553 59 0 0.0 3.5 0.00 0.46 0.46 100 1004.6
20260506203051 59 356 1.7 2.6 0.00 0.46 0.46 100 1004.8
20260506201552 59 283 0.0 3.5 0.00 0.46 0.46 100 1004.9
20260506200050 60 300 0.9 2.6 0.00 0.46 0.46 100 1004.9
20260506194554 60 286 1.7 5.2 0.01 0.46 0.46 100 1004.9
20260506193054 60 315 0.0 2.6 0.01 0.46 0.46 100 1005.0
20260506191553 60 0 0.9 4.3 0.02 0.46 0.46 100 1005.3
20260506184558 59 155 2.6 6.1 0.03 0.45 0.45 100 1005.6
20260506183537 59 131 0.9 2.6 0.04 0.45 0.45 100 1005.5
20260506181604 59 224 0.0 3.5 0.06 0.44 0.44 100 1005.8
20260506180058 59 0 0.0 4.3 0.08 0.43 0.43 100 1006.0
20260506174555 59 139 0.9 3.5 0.10 0.42 0.42 100 1006.0
20260506173124 59 131 0.0 2.6 0.12 0.41 0.41 100 1006.1
20260506171549 59 239 0.9 5.2 0.13 0.38 0.38 100 1006.0
20260506170053 59 232 0.9 7.0 0.13 0.34 0.34 100 1006.5
20260506164556 59 0 0.0 1.7 0.13 0.32 0.32 100 1006.6
20260506163107 59 0 0.0 5.2 0.12 0.29 0.29 100 1006.8
20260506161624 59 232 0.0 0.9 0.11 0.25 0.25 100 1007.2
20260506154555 59 239 0.0 5.2 0.09 0.19 0.19 100 1007.2
20260506153058 59 326 0.0 2.6 0.07 0.16 0.16 100 1007.3
20260506151558 59 0 0.0 2.6 0.08 0.14 0.14 100 1007.4
20260506150052 59 0 0.0 0.0 0.08 0.12 0.12 100 1007.5
20260506144551 60 0 0.0 1.7 0.08 0.10 0.10 100 1007.6
20260506143053 60 360 0.0 1.7 0.09 0.09 0.09 100 1007.6
20260506141556 60 0 0.0 2.6 0.06 0.06 0.06 100 1007.9
20260506140053 60 339 0.9 2.6 0.04 0.04 0.04 100 1008.1
20260506134549 61 248 0.9 6.1 0.02 0.02 0.02 43 1008.0
20260506133053 62 212 0.9 4.3 0.00 0.00 0.00 62 1007.7
20260506131552 63 162 1.7 8.7 0.00 0.00 0.00 72 1007.3
20260506130103 64 217 2.6 6.1 0.00 0.00 0.00 71 1007.3
20260506124554 64 210 1.7 5.2 0.00 0.00 0.00 70 1007.4
20260506123050 64 195 2.6 7.0 0.00 0.00 0.00 70 1007.5
20260506121550 64 119 0.9 8.7 0.00 0.00 0.00 69 1007.7
20260506120052 63 139 1.7 11.3 0.00 0.00 0.00 69 1008.0
20260506114553 63 236 2.6 9.6 0.00 0.00 0.00 68 1008.0
20260506113056 63 199 1.7 7.8 0.00 0.00 0.00 68 1007.5
20260506111554 64 119 2.6 8.7 0.00 0.00 0.00 66 1007.4
20260506110057 64 217 1.7 7.8 0.00 0.00 0.00 66 1007.4
20260506104556 64 215 0.9 8.7 0.00 0.00 0.00 65 1007.2
20260506103058 64 252 1.7 8.7 0.00 0.00 0.00 64 1007.5
20260506101559 64 173 0.0 5.2 0.00 0.00 0.00 63 1007.0
20260506100109 64 198 2.6 7.0 0.00 0.00 0.00 62 1007.4
20260506094551 64 137 0.9 4.3 0.00 0.00 0.00 62 1007.3
20260506093053 64 101 0.0 4.3 0.00 0.00 0.00 61 1007.2
20260506091551 64 142 0.9 5.2 0.00 0.00 0.00 61 1007.3
20260506090048 64 207 0.0 7.0 0.00 0.00 0.00 60 1007.3
20260506084619 64 242 0.9 6.1 0.00 0.00 0.00 59 1007.5
20260506083054 64 110 0.0 2.6 0.00 0.00 0.00 59 1007.6
20260506081557 64 219 0.9 1.7 0.00 0.00 0.00 60 1007.7
20260506073055 66 273 1.7 2.6 0.00 0.00 0.00 54 1007.9
20260506071553 67 0 0.0 7.0 0.00 0.00 0.00 53 1007.8
20260506061552 68 269 0.9 5.2 0.00 0.00 0.00 52 1008.5
20260506044700 69 229 1.7 7.0 0.00 0.00 0.00 48 1008.6
20260506043107 70 228 3.5 7.8 0.00 0.00 0.00 47 1008.7
20260506041601 70 0 1.7 8.7 0.00 0.00 0.00 47 1008.7
20260506040054 70 4 0.9 7.8 0.00 0.00 0.00 46 1008.5
20260506034623 70 245 1.7 5.2 0.00 0.00 0.00 46 1008.6
20260506033058 71 273 0.9 7.8 0.00 0.00 0.00 45 1008.3
20260506031553 71 314 1.7 10.4 0.00 0.00 0.00 45 1008.2
20260506030051 71 240 2.6 6.1 0.00 0.00 0.00 45 1008.3
20260506024550 72 323 1.7 7.0 0.00 0.00 0.00 45 1008.3
20260506023108 71 290 1.7 5.2 0.00 0.00 0.00 46 1008.3
20260506021554 72 250 1.7 6.1 0.00 0.00 0.00 45 1008.3
20260506020052 72 121 2.6 8.7 0.00 0.00 0.00 45 1008.3
20260506014553 71 224 1.7 7.8 0.00 0.00 0.00 46 1008.3
20260506013055 71 224 0.9 6.1 0.00 0.00 0.00 47 1008.1
20260506011614 71 214 0.9 3.5 0.00 0.00 0.00 46 1007.8
20260506010101 72 0 0.0 2.6 0.00 0.00 0.00 44 1007.7
20260506004632 72 273 0.9 7.0 0.00 0.00 0.00 42 1007.5
20260506003111 72 145 0.0 4.3 0.00 0.00 0.00 45 1007.5
20260506001554 72 300 0.9 6.1 0.00 0.00 0.00 42 1007.2
20260506000059 72 314 2.6 9.6 0.00 0.00 0.00 43 1007.1
20260505234637 71 325 1.7 3.5 0.00 0.00 0.00 47 1007.0
20260505233102 71 0 0.0 2.6 0.00 0.00 0.00 45 1006.8
20260505231551 72 211 0.9 2.6 0.00 0.00 0.00 45 1006.7
20260505230053 73 293 2.6 5.2 0.00 0.00 0.00 41 1006.5
20260505224554 75 319 3.5 4.3 0.00 0.00 0.00 37 1006.2
20260505223051 75 229 2.6 7.8 0.00 0.00 0.00 35 1005.9
20260505221554 76 102 1.7 7.8 0.00 0.00 0.00 34 1006.0
20260505214601 77 297 4.3 11.3 0.00 0.00 0.00 32 1005.7
20260505213054 77 245 3.5 9.6 0.00 0.00 0.00 32 1005.4